Home   Weather   Lexington   Past weeks

Flag for USA Past Weather in Lexington, Virginia, USA — Yesterday and Last 2 Weeks

Now
50 °F

Partly cloudy.


Feels Like: 46 °F
Forecast: 47 / 61 °F
Wind: 9 mph from Southwest

Location: Hot Springs / Ingalls

Current Time: Jan 20, 2017 at 9:06:47 pm

Latest Report: Jan 20, 2017 at 8:14 pm


Visibility: 10 mi

Pressure: 29.88 "Hg

Humidity: 94%

Dew Point: 48 °F

Location of LexingtonLocation

Past Weather in Lexington — Graph

°F

Lexington Temperature Yesterday

Maximum temperature yesterday: 50 °F (at 12:35 pm)
Minimum temperature yesterday: 34 °F (at 12:15 am)
Average temperature yesterday: 41 °F

High & Low Weather Summary for the Past Weeks

 TemperatureHumidityPressure
High59 °F (Jan 12, 2:57 pm)100% (Jan 5, 10:36 pm)30.52 "Hg (Jan 5, 10:36 pm)
Low-2 °F (Jan 8, 3:56 am)16% (Jan 9, 6:16 am)29.71 "Hg (Jan 6, 2:56 am)
Average35 °F81%30.14 "Hg
* Reported Jan 5 7:18 pm — Jan 20 7:54 pm, Lexington, Weather by CustomWeather, © 2017

Note: Actual official high and low records may vary slightly from our data, if they occured in-between our weather recording intervals... More about our weather records

Advertising

Lexington Weather History for the Previous 24 Hours

Scroll right to see more
 ConditionsComfort  
Time TempWeatherWind HumidityBarometerVisibility
7:54 pm
Fri, Jan 20
48 °FPassing clouds.6 mph100%29.87 "Hg10 mi
7:14 pm50 °FPassing clouds.6 mph94%29.86 "Hg10 mi
6:54 pm50 °FPassing clouds.6 mph94%29.86 "Hg10 mi
6:34 pm48 °FPartly cloudy.6 mph100%29.86 "Hg10 mi
6:14 pm48 °FPassing clouds.7 mph94%29.85 "Hg10 mi
5:57 pm48 °FClear.6 mph100%29.84 "Hg10 mi
5:36 pm48 °FClear.5 mph100%29.83 "Hg10 mi
5:17 pm48 °FSunny.5 mph94%29.82 "Hg10 mi
4:54 pm52 °FSunny.7 mph88%29.81 "Hg10 mi
4:34 pm52 °FScattered clouds.7 mph88%29.81 "Hg10 mi
4:14 pm52 °FScattered clouds.9 mph88%29.82 "Hg10 mi
3:56 pm52 °FScattered clouds.9 mph88%29.81 "Hg10 mi
3:17 pm48 °FLow clouds.7 mph100%29.80 "Hg10 mi
2:56 pm48 °FLow clouds.9 mph100%29.79 "Hg10 mi
2:16 pm46 °FFog.10 mph100%29.79 "Hg0 mi
1:54 pm46 °FFog.12 mph100%29.79 "Hg0 mi
1:34 pm48 °FFog.15 mph100%29.80 "Hg1 mi
1:16 pm46 °FFog.8 mph100%29.81 "Hg0 mi
12:54 pm46 °FFog.8 mph100%29.81 "Hg1 mi
12:37 pm46 °FFog.10 mph100%29.81 "Hg0 mi
12:16 pm46 °FFog.8 mph100%29.82 "Hg1 mi
11:54 am46 °FFog.7 mph100%29.83 "Hg5 mi
11:34 am46 °FFog.7 mph100%29.84 "Hg1 mi
11:16 am45 °FDrizzle. Low clouds.7 mph100%29.86 "Hg1 mi
10:56 am43 °FLight rain. Low clouds.12 mph100%29.86 "Hg0 mi
10:37 am43 °FLight rain. Low clouds.15 mph100%29.86 "Hg0 mi
10:15 am43 °FFog.10 mph100%29.86 "Hg0 mi
9:56 am43 °FFog.14 mph100%29.86 "Hg0 mi
9:14 am43 °FLight rain. Low clouds.13 mph100%29.85 "Hg0 mi
8:56 am41 °FLight rain. Low clouds.13 mph100%29.85 "Hg0 mi
8:14 am41 °FLight rain. Low clouds.8 mph100%29.85 "Hg1 mi
7:54 am41 °FLight rain. Mostly cloudy.6 mph100%29.86 "Hg1 mi
7:34 am39 °FRain. Cloudy.16 mph100%29.85 "Hg7 mi
7:16 am39 °FRain. Mostly cloudy.14 mph100%29.85 "Hg7 mi
6:54 am39 °FLight rain. Mostly cloudy.10 mph93%29.85 "Hg10 mi
6:34 am43 °FPassing clouds.10 mph71%29.85 "Hg10 mi
6:15 am43 °FPassing clouds.10 mph71%29.83 "Hg10 mi
5:57 am43 °FPassing clouds.9 mph71%29.84 "Hg10 mi
5:34 am43 °FPassing clouds.13 mph71%29.84 "Hg10 mi
5:17 am43 °FPassing clouds.13 mph66%29.84 "Hg10 mi
4:54 am43 °FOvercast.12 mph66%29.83 "Hg10 mi
4:37 am43 °FMostly cloudy.13 mph66%29.85 "Hg10 mi
4:14 am43 °FMostly cloudy.9 mph66%29.85 "Hg10 mi
3:56 am43 °FPartly cloudy.10 mph66%29.87 "Hg10 mi
3:14 am43 °FMostly cloudy.10 mph66%29.86 "Hg10 mi
2:54 am43 °FOvercast.10 mph66%29.87 "Hg10 mi
2:36 am43 °FMostly cloudy.12 mph66%29.88 "Hg10 mi
2:16 am43 °FMostly cloudy.10 mph66%29.89 "Hg10 mi
1:54 am43 °FPartly cloudy.7 mph66%29.88 "Hg10 mi
1:36 am43 °FOvercast.9 mph66%29.89 "Hg10 mi
1:14 am43 °FMostly cloudy.9 mph66%29.91 "Hg10 mi
12:54 am45 °FMostly cloudy.12 mph61%29.90 "Hg10 mi
12:14 am45 °FPassing clouds.12 mph61%29.92 "Hg10 mi
11:54 pm
Thu, Jan 19
45 °FClear.10 mph61%29.92 "Hg10 mi
11:14 pm45 °FPassing clouds.10 mph61%29.93 "Hg10 mi
10:56 pm43 °FClear.9 mph66%29.92 "Hg10 mi
10:14 pm45 °FClear.12 mph66%29.94 "Hg10 mi
9:55 pm45 °FClear.13 mph66%29.95 "Hg10 mi
9:34 pm45 °FClear.14 mph66%29.94 "Hg10 mi
9:15 pm45 °FClear.10 mph66%29.94 "Hg10 mi
Weather by CustomWeather, © 2017

See weather overviewHow to use our weather pages